Location: Meanaryar
(48.4161°N, 4.7315°W)
Time: 01:53:30
(UTC+00:00)

Cosmos 2112 Rocket - Pass Details

Date: 18 September 2020
Orbit: 756 x 787 km, 74.1° (Epoch: 31 October)

Event Time Altitude Azimuth Distance (km) Brightness Sun altitude
Rises 18:47:58 0° 336° (NNW) 3,225 7.7 -4.7°
Reaches altitude 10° 18:50:20 10° 336° (NNW) 2,298 7.0 -5.1°
Maximum altitude 18:55:33 85° 250° (WSW) 771 4.1 -6.0°
Drops below altitude 10° 19:00:46 10° 161° (SSE) 2,297 6.2 -6.8°
Sets 19:03:08 0° 161° (SSE) 3,223 6.9 -7.2°
